Flag for Italy Weather past 2 weeks in Bologna, Italy

Now
37 °F

Clear.


Feels Like: 32 °F
Forecast: 31 / 44 °F
Wind: 7 mph from West

Location: Bologna / Borgo Panigale

Current Time: Jan 25, 2015 at 5:59:45 AM

Latest Report: Jan 25, 2015 at 4:50 AM


Visibility: 10 mi

Pressure: 29.92 "Hg

Humidity: 87%

Dew point: 34 °F

Location of BolognaLocation

Historic Weather in Bologna — Graph

°F

Bologna temperature yesterday

Maximum temperature yesterday: 54 °F (at 2:50 PM)
Minimum temperature yesterday: 39 °F (at 11:50 PM)
Average temperature yesterday: 45 °F

Past Weeks' High & Low Weather Summary

 TemperatureHumidityPressure
High64 °F (Jan 17, 1:20 PM)100% (Jan 10, 5:20 AM)30.39 "Hg (Jan 10, 5:20 AM)
Low27 °F (Jan 13, 6:50 AM)28% (Jan 12, 12:50 PM)29.74 "Hg (Jan 23, 3:50 AM)
Average42 °F82%30.01 "Hg
* Reported Jan 10 4:50 AM — Jan 25 4:20 AM, Bologna, Weather by CustomWeather, © 2014

Note: Actual official high and low records may vary slightly from our data, if they occured in-between our weather recording intervals... More about our weather records

Advertising

Bologna weather history for previous 24 hours

 ConditionsComfort  
Time TempWeatherWind HumidityBarometerVisibility
4:20 AM
Jan 25
36 °FClear.3 mph93%29.89 "Hg10 mi
3:50 AM37 °FClear.6 mph87%29.89 "Hg10 mi
3:20 AM39 °FClear.3 mph81%29.89 "Hg10 mi
2:50 AM37 °FPassing clouds.3 mph87%29.89 "HgN/A
2:20 AM39 °FClear.5 mph81%29.89 "Hg10 mi
1:50 AM39 °FClear.2 mph87%29.86 "Hg10 mi
1:20 AM39 °FClear.2 mph87%29.86 "Hg10 mi
12:50 AM37 °FClear.2 mph87%29.86 "Hg10 mi
12:20 AM37 °FClear.5 mph87%29.86 "Hg10 mi
11:50 PM
Jan 24
39 °FClear.3 mph87%29.86 "Hg10 mi
11:20 PM41 °FPassing clouds.3 mph81%29.86 "HgN/A
10:50 PM43 °FClear.3 mph81%29.83 "Hg10 mi
10:20 PM41 °FClear.3 mph81%29.83 "Hg10 mi
9:50 PM43 °FClear.7 mph81%29.83 "Hg10 mi
9:20 PM41 °FClear.6 mph87%29.83 "Hg10 mi
8:50 PM41 °FClear.3 mph87%29.83 "Hg10 mi
8:20 PM41 °FClear.5 mph87%29.80 "Hg10 mi
7:50 PM43 °FClear.3 mph76%29.80 "Hg10 mi
7:20 PM43 °FClear.2 mph81%29.80 "Hg10 mi
6:50 PM43 °FClear.2 mph87%29.80 "Hg10 mi
6:20 PM43 °FClear.2 mph87%29.80 "Hg10 mi
5:50 PM46 °FClear.2 mph76%29.80 "Hg10 mi
5:20 PM48 °FClear.2 mph66%29.80 "Hg10 mi
4:50 PM52 °FSunny.3 mph58%29.80 "Hg10 mi
4:20 PM52 °FSunny.5 mph58%29.80 "Hg10 mi
3:50 PM52 °FPassing clouds.6 mph62%29.80 "HgN/A
3:20 PM52 °FPassing clouds.5 mph62%29.80 "HgN/A
2:50 PM54 °FSunny.7 mph58%29.80 "Hg10 mi
2:20 PM52 °FSunny.9 mph62%29.83 "Hg10 mi
1:50 PM52 °FPassing clouds.8 mph62%29.83 "HgN/A
1:20 PM50 °FPassing clouds.8 mph67%29.83 "HgN/A
12:50 PM50 °FPassing clouds.8 mph67%29.86 "HgN/A
12:20 PM48 °FSunny.12 mph71%29.86 "Hg10 mi
11:50 AM50 °FSunny.14 mph67%29.89 "Hg10 mi
11:20 AM48 °FSunny.12 mph76%29.89 "Hg10 mi
10:50 AM46 °FPassing clouds.10 mph76%29.89 "HgN/A
10:20 AM46 °FScattered clouds.10 mph76%29.89 "HgN/A
9:50 AM45 °FScattered clouds.5 mph81%29.89 "HgN/A
9:20 AM45 °FScattered clouds.3 mph87%29.89 "HgN/A
8:50 AM43 °FScattered clouds.2 mph93%29.89 "HgN/A
8:20 AM43 °FPartly sunny.2 mph87%29.89 "HgN/A
7:50 AM43 °FPartly sunny.5 mph87%29.89 "Hg5 mi
7:20 AM43 °FPassing clouds.5 mph87%29.89 "HgN/A
6:50 AM43 °FPassing clouds.5 mph87%29.89 "Hg5 mi
6:20 AM41 °FPassing clouds.3 mph93%29.89 "Hg5 mi
5:50 AM41 °FPassing clouds.3 mph93%29.89 "Hg5 mi
5:20 AM41 °FPassing clouds.2 mph93%29.89 "Hg5 mi
Weather by CustomWeather, © 2014

See weather overviewHow to use our weather pages